Vertical_Velocity
-8 -6 -7 1 -3 -0 -3 6 8 6 5 3 6 18 -15 38 7 1 1 7 -1 -1 1 -7 -3 1 -12 7 3 2 -7 6 -6 10 3 -3 -2 3 -2 -4 -0 -3 -3
26 22 31 8 -2 1 3 2 4 4 7 4 6 6 -1 14 11 17 2 7 1 -2 3 -1 6 -9 -3 11 10 1 11 11 -7 -9 1 -2 -3 -0 2 0 -2 -3 1
9 -5 3 -25 2 4 1 -3 8 9 6 10 1 2 15 4 -23 9 12 6 6 8 -1 20 -9 -8 -5 5 4 0 1 -2 2 0 -2 -2 2 0 1 -2 7 -2 0
8 17 9 -10 2 1 -1 1 6 2 4 -6 1 5 2 7 12 -12 15 -3 -5 -0 5 -12 6 5 1 2 0 2 -1 -2 -1 3 -1 -1 0 0 5 -3 -1 0 1
-24 -5 -4 3 3 4 9 8 6 9 7 7 -1 3 -1 -19 7 -7 11 3 -2 4 -13 -6 4 -2 1 1 1 -0 -0 -3 -0 -2 -1 1 -1 -2 -2 0 -0 0 2
9 0 -0 4 3 8 7 9 4 7 8 4 5 -5 -4 -2 18 2 8 10 -11 -5 -3 7 6 -8 -3 4 0 3 1 -6 -6 -2 -4 -3 1 -2 -0 1 3 1 -4
3 1 -5 5 4 5 3 6 4 6 5 11 9 1 -1 -10 -2 2 2 -8 -9 -6 3 5 -5 -3 0 2 6 8 0 5 7 0 -4 -1 -2 -1 -1 0 -0 -2 -1
1 -4 4 3 5 5 6 8 5 4 4 -6 -10 -1 -3 3 10 -3 -11 -5 -5 3 7 2 -1 -4 1 4 4 -1 1 1 -1 -7 4 0 -2 -1 1 -1 -3 2 -3
-3 1 3 5 5 6 4 4 6 3 2 6 10 3 6 -0 -3 -6 -0 -1 2 5 -0 2 2 -1 -2 7 -1 -2 -1 -3 -3 1 2 1 3 -2 4 -1 -3 -2 -0
-0 -2 2 1 5 4 4 3 2 4 2 5 3 2 6 -4 2 -2 4 3 -2 -4 3 -0 5 6 8 -2 4 0 -3 -1 -1 -3 1 -1 1 3 -2 0 -3 -4 2
3 -0 1 5 3 6 5 8 1 1 3 1 -3 -2 -3 6 -2 0 -1 -3 -5 -7 -4 -3 -1 -0 1 0 4 -0 1 -1 -2 3 -3 4 -2 2 -2 -0 -2 -0 -3
-1 -2 -0 0 1 4 2 5 4 1 0 4 -1 3 7 4 4 3 2 -0 0 4 -2 2 1 4 2 -4 -3 -3 -2 3 1 -1 -1 0 -2 -1 1 -1 -1 -2 -3
-3 2 -1 2 3 -4 -0 1 3 2 1 -1 -1 -1 -1 1 5 3 -1 4 1 -5 3 5 2 2 0 -1 2 4 -1 -1 -0 -4 -2 -1 -0 1 1 -1 -1 -2 -2
-3 -1 1 2 2 5 -1 -1 -3 -1 -4 -3 -6 -3 -4 -1 -2 -2 2 2 2 9 9 3 0 3 2 8 -1 -1 -4 -2 -1 -2 -3 3 -1 -1 -2 -1 -1 -1 -1
-1 -1 -1 3 0 3 6 -3 -5 0 -2 -8 -3 1 -13 -9 -5 -2 -5 -2 -1 -2 -5 2 1 1 2 1 -1 -1 -3 -0 -4 -4 3 -2 0 -1 -1 -1 -2 -2 -3
-3 0 -1 1 5 1 4 3 0 -1 -1 2 -1 -1 -1 8 -1 1 4 -2 -6 -1 2 -3 -4 -1 3 2 0 -2 1 -2 -3 0 -1 1 -0 -2 -2 -2 -2 -2 -3
-3 -1 2 1 1 2 4 -1 -6 6 2 -2 3 3 4 -2 1 -0 -2 0 1 -1 1 0 -0 1 0 -2 -2 -1 -1 1 2 0 2 0 -1 -2 -3 -2 -2 -3 -2
-3 -2 0 1 3 4 4 2 1 -6 0 2 4 -1 2 6 -0 2 0 7 2 13 7 -2 -0 -2 -4 -1 -0 -1 -0 -0 -1 1 -0 -2 -3 -3 -2 -4 -4 -1 -2
-0 0 1 1 2 4 4 3 1 2 1 -1 1 8 6 1 -0 0 7 1 -6 -1 -1 1 -1 -0 -2 -1 -0 0 -0 0 -0 -0 -1 -3 -2 -3 -2 -1 -2 -2 -1
9 0 1 3 1 5 3 -0 3 3 0 0 1 -0 -2 4 2 -1 4 -0 2 2 0 -3 -1 -0 -1 0 -0 -1 -2 -3 -1 -2 -2 -2 -2 -1 -2 -1 1 -4 -0
6 3 2 2 6 5 5 -1 2 -2 -1 0 0 2 -3 -2 -2 -5 -2 -3 1 3 -1 -3 -2 -2 2 2 -1 -1 -1 -1 -2 -1 -1 -2 -2 -3 -1 -2 2 2 -3
7 4 1 4 4 3 1 1 1 2 2 1 -2 -0 4 3 -0 -2 2 -0 -1 2 0 -1 -0 -1 -1 -2 -4 -1 -0 -1 -2 -2 -1 -2 -1 -0 -2 0 -0 -1 -0
5 3 2 5 0 2 5 2 2 1 2 2 -1 -2 -0 1 -2 -3 -4 0 -1 -0 -0 2 2 -3 -2 -1 -2 -3 -1 -2 -3 -2 -1 -1 -2 -2 0 -2 -1 -0 2
4 3 0 1 1 2 1 1 -1 2 2 -0 -2 0 -0 -0 -4 -5 -3 0 1 2 1 0 -1 -0 -4 -1 -0 -3 -1 2 1 -1 0 1 -1 1 -0 -2 -0 2 3
4 3 2 1 1 3 -0 -1 -1 -0 -0 -2 -1 1 0 0 -1 -0 0 3 1 1 -3 -1 -1 -1 -2 -2 1 1 0 -2 -1 -0 -0 -1 -0 0 0 -0 3 2 -1
2 2 1 1 2 1 2 1 1 1 -2 -1 -2 -3 -1 -0 -0 1 -1 2 -1 -1 -3 -1 -2 -2 -1 -2 0 -1 -2 0 -1 -0 1 0 1 0 2 0 3 3 -0
Height
1378 1378 1375 1380 1384 1386 1387 1390 1393 1396 1398 1402 1407 1413 1416 1422 1421 1431 1441 1445 1450 1460 1468 1476 1481 1485 1494 1502 1501 1502 1509 1513 1513 1524 1527 1529 1534 1536 1536 1539 1540 1540 1542
1367 1369 1371 1374 1377 1377 1378 1380 1384 1389 1394 1396 1402 1408 1409 1417 1427 1423 1433 1440 1445 1452 1462 1470 1473 1481 1491 1498 1499 1500 1506 1509 1509 1514 1523 1527 1531 1535 1536 1537 1537 1536 1540
1362 1362 1364 1364 1370 1369 1371 1373 1377 1381 1387 1392 1398 1402 1410 1414 1419 1427 1429 1437 1445 1449 1459 1466 1467 1478 1487 1493 1495 1498 1501 1504 1508 1512 1518 1524 1529 1532 1535 1539 1540 1536 1537
1356 1358 1353 1357 1362 1362 1363 1366 1370 1374 1380 1388 1393 1398 1407 1415 1416 1426 1431 1430 1444 1450 1457 1458 1470 1476 1483 1487 1491 1495 1497 1500 1506 1510 1515 1521 1526 1530 1534 1535 1537 1536 1535
1353 1353 1351 1352 1353 1354 1355 1358 1361 1367 1373 1378 1385 1392 1404 1410 1415 1425 1429 1429 1441 1447 1453 1464 1469 1473 1482 1487 1491 1492 1492 1495 1501 1506 1511 1516 1521 1525 1529 1532 1534 1536 1536
1350 1347 1345 1344 1345 1347 1348 1351 1356 1362 1367 1374 1380 1390 1398 1406 1418 1419 1430 1425 1437 1446 1452 1461 1463 1470 1482 1486 1490 1490 1491 1494 1498 1503 1510 1515 1520 1522 1527 1529 1532 1532 1533
1345 1341 1339 1339 1340 1342 1346 1348 1352 1358 1366 1373 1379 1387 1398 1404 1417 1421 1422 1427 1438 1445 1455 1458 1461 1472 1480 1484 1489 1489 1491 1495 1499 1502 1507 1510 1514 1518 1522 1525 1528 1530 1532
1339 1337 1336 1336 1337 1340 1344 1348 1352 1359 1364 1372 1383 1390 1397 1406 1412 1414 1422 1429 1439 1448 1454 1457 1462 1470 1477 1482 1482 1485 1489 1493 1496 1502 1507 1508 1513 1516 1519 1520 1525 1528 1530
1338 1335 1336 1336 1338 1341 1344 1349 1354 1361 1367 1375 1382 1388 1394 1401 1407 1416 1423 1431 1439 1446 1451 1457 1463 1468 1475 1479 1480 1483 1487 1491 1497 1502 1506 1508 1512 1513 1516 1518 1522 1525 1527
1338 1336 1337 1339 1341 1344 1348 1352 1358 1364 1370 1377 1382 1388 1395 1402 1410 1415 1424 1431 1437 1444 1452 1458 1463 1468 1472 1475 1479 1482 1485 1491 1495 1499 1504 1506 1511 1510 1513 1516 1518 1521 1523
1339 1337 1338 1340 1344 1347 1351 1355 1360 1366 1373 1379 1384 1390 1398 1404 1409 1418 1425 1430 1436 1443 1449 1454 1460 1465 1467 1471 1477 1481 1487 1490 1494 1497 1501 1504 1506 1509 1510 1513 1515 1518 1519
1342 1340 1341 1342 1347 1351 1355 1359 1364 1369 1375 1381 1385 1393 1400 1407 1414 1419 1425 1431 1437 1442 1447 1452 1457 1462 1466 1470 1476 1480 1487 1489 1493 1494 1499 1502 1504 1506 1507 1510 1512 1514 1516
1343 1343 1344 1346 1347 1353 1358 1363 1367 1372 1375 1381 1386 1393 1399 1407 1414 1420 1426 1433 1437 1442 1447 1451 1454 1460 1465 1470 1476 1479 1484 1487 1490 1493 1497 1499 1501 1503 1505 1507 1510 1512 1514
1345 1345 1347 1349 1351 1354 1360 1364 1367 1371 1376 1382 1387 1393 1399 1407 1412 1419 1425 1430 1435 1441 1445 1450 1454 1460 1465 1468 1471 1476 1480 1485 1488 1491 1494 1496 1498 1499 1502 1505 1507 1509 1512
1345 1346 1348 1350 1352 1355 1359 1362 1367 1373 1377 1381 1385 1390 1395 1402 1407 1414 1420 1426 1432 1437 1442 1448 1453 1458 1462 1465 1469 1472 1477 1481 1485 1488 1491 1493 1495 1497 1500 1502 1505 1507 1509
1343 1345 1347 1350 1353 1356 1360 1362 1369 1375 1380 1384 1388 1393 1398 1403 1407 1414 1420 1425 1431 1437 1441 1445 1450 1455 1459 1462 1466 1470 1474 1478 1481 1485 1488 1490 1492 1495 1498 1501 1503 1505 1507
1342 1342 1344 1347 1351 1354 1359 1361 1365 1374 1381 1386 1390 1394 1398 1401 1407 1413 1419 1425 1431 1436 1440 1443 1446 1451 1456 1460 1465 1468 1471 1475 1478 1481 1484 1487 1490 1492 1495 1499 1501 1503 1505
1338 1338 1340 1343 1347 1352 1357 1361 1364 1370 1375 1382 1388 1392 1396 1401 1405 1411 1417 1424 1430 1435 1437 1441 1445 1447 1454 1458 1461 1464 1468 1472 1475 1479 1481 1484 1487 1490 1493 1496 1498 1501 1502
1332 1333 1335 1339 1343 1349 1354 1360 1365 1369 1375 1379 1386 1392 1396 1401 1405 1410 1416 1420 1425 1430 1435 1439 1443 1446 1451 1455 1459 1462 1465 1468 1472 1475 1479 1481 1485 1488 1491 1494 1496 1498 1500
1327 1329 1332 1336 1341 1346 1351 1357 1363 1367 1372 1378 1383 1387 1393 1399 1402 1407 1413 1418 1424 1429 1432 1436 1440 1444 1448 1453 1456 1459 1462 1466 1469 1473 1476 1479 1482 1485 1488 1491 1494 1495 1497
1327 1328 1331 1335 1340 1345 1349 1354 1360 1365 1371 1376 1380 1384 1388 1394 1397 1403 1409 1414 1420 1426 1429 1433 1437 1441 1446 1450 1453 1456 1460 1463 1466 1470 1473 1476 1479 1482 1485 1488 1490 1492 1492
1327 1328 1331 1335 1339 1344 1349 1354 1357 1362 1369 1373 1378 1384 1388 1392 1397 1403 1408 1412 1416 1422 1426 1430 1434 1438 1442 1446 1449 1454 1457 1460 1463 1466 1470 1473 1476 1479 1482 1484 1486 1487 1488
1328 1329 1332 1335 1339 1345 1350 1353 1358 1362 1366 1371 1375 1380 1385 1390 1394 1401 1406 1410 1413 1418 1422 1427 1431 1434 1439 1443 1447 1450 1454 1456 1459 1463 1466 1469 1472 1475 1477 1479 1481 1482 1483
1330 1332 1334 1338 1341 1345 1349 1353 1357 1361 1365 1369 1373 1377 1381 1387 1392 1397 1403 1406 1410 1414 1418 1423 1427 1432 1435 1440 1444 1447 1450 1453 1456 1459 1462 1465 1468 1471 1473 1474 1476 1477 1478
1332 1334 1336 1339 1341 1344 1348 1351 1355 1360 1363 1366 1370 1374 1379 1385 1390 1395 1400 1403 1407 1410 1415 1420 1424 1428 1432 1436 1440 1443 1446 1449 1452 1455 1458 1461 1464 1466 1467 1469 1471 1471 1471
1334 1335 1337 1339 1341 1344 1346 1349 1353 1356 1359 1364 1368 1372 1377 1382 1388 1392 1396 1399 1403 1407 1411 1415 1420 1424 1428 1432 1435 1438 1442 1445 1448 1451 1454 1457 1459 1461 1462 1464 1465 1465 1466